This is the latest recevied weather packets stored in our database for station/object IU2DXM. If no packets are shown the sender has not sent any weather packets the latest 10 day(s).
| Time | Temp. | Humidity | Pressure | Rain* | Wind** | Luminosity | Snow |
|---|---|---|---|---|---|---|---|
| 1777602616 | 9.44° C | - | - | 0 mm | - | 0 W/m² | - |
| 1777594818 | 10° C | - | - | 0 mm | - | 0 W/m² | - |
| 1777592418 | 10.56° C | - | - | 0 mm | - | 0 W/m² | - |
| 1777591218 | 11.11° C | - | - | 0 mm | - | 0 W/m² | - |
| 1777589417 | 11.11° C | - | - | 0 mm | - | 0 W/m² | - |
| 1777588817 | 11.67° C | - | - | 0 mm | - | 0 W/m² | - |
| 1777587037 | 11.67° C | - | - | 0 mm | - | 0 W/m² | - |
| 1777585817 | 11.67° C | - | - | 0 mm | - | 0 W/m² | - |
| 1777575617 | 15.56° C | - | - | 0 mm | - | 0 W/m² | - |
| 1777572617 | 17.22° C | - | - | 0 mm | - | 14 W/m² | - |
| 1777570816 | 18.33° C | - | - | 0 mm | - | 60 W/m² | - |
| 1777569616 | 18.33° C | - | - | 0 mm | - | 115 W/m² | - |
| 1777568416 | 18.89° C | - | - | 0 mm | - | 178 W/m² | - |
| 1777562416 | 19.44° C | - | - | 0 mm | - | 465 W/m² | - |
| 1777561216 | 20° C | - | - | 0 mm | - | 523 W/m² | - |
| 1777560639 | 20° C | - | - | 0 mm | - | 540 W/m² | - |
| 1777559418 | 19.44° C | - | - | 0 mm | - | 596 W/m² | - |
| 1777554617 | 19.44° C | - | - | 0 mm | - | 748 W/m² | - |
| 1777554018 | 18.89° C | - | - | 0 mm | - | 769 W/m² | - |
| 1777552818 | 18.89° C | - | - | 0 mm | - | 782 W/m² | - |
| 1777550457 | 18.33° C | - | - | 0 mm | - | 799 W/m² | - |
| 1777549217 | 18.33° C | - | - | 0 mm | - | 852 W/m² | - |
| 1777543817 | 16.67° C | - | - | 0 mm | - | 775 W/m² | - |
| 1777543217 | 16.67° C | - | - | 0 mm | - | 758 W/m² | - |
| 1777542619 | 16.11° C | - | - | 0 mm | - | 758 W/m² | - |
* Rain latest hour (hover to see other rain measurements)
** Current wind speed in m/s (hover to see current wind gust speed)